sat.trackr.live / text

‹ back to catalog

STARLINK-35632

NORAD 66129 · 2025-237R

PAYLOAD ACTIVE UNKNOWN

§ Identity

Operator
Country
US
Launch date
2025-10-22
Launch site
AFWTR
Launch vehicle
Mass (kg)
RCS (m²)

Purposes: comms

External: N2YO · Heavens-Above · Gunter

§ Orbital elements

Epoch: 2026-09-20T04:10:00.465600Z

Period
93.85 min
Inclination
53.1577°
Eccentricity
0.0001207
Mean motion
15.34399459 rev/d
Perigee alt
461.9 km
Apogee alt
463.5 km
Semi-major
6,840.8 km
B*
4.1392e-4
RAAN
215.0812°
Arg perigee
80.1662°
Mean anomaly
279.9477°
Rev number
5,240

§ Raw data

STARLINK-356321 66129U 25237R   26263.17361650  .00013634  00000+0  41392-3 0  99992 66129  53.1577 215.0812 0001207  80.1662 279.9477 15.34399459 52404

JSON: /api/v1/satellites/66129 · /tle

For live sub-satellite position, see the globe view (requires WebGL).

§ Visibility from observer

Set your observer location to see the next 7 days of passes ≥ 10°. The values pass through the URL so the page stays shareable.

No JS? Fill the form by hand. The geolocation button needs JavaScript.